Location: Ecklingerode
(51.5036°N, 10.3122°E)
Time: 01:37:56
(UTC+00:00)

ATLAS 2AS CENTAUR R/B - Pass Details

Date: 29 October 2020
Orbit: 939 x 1273 km, 63.7° (Epoch: 23 November)

Event Time Altitude Azimuth Distance (km) Brightness Sun altitude
Rises 20:04:30 0° 314° (NW) 4,131 6.7 -38.2°
Reaches altitude 10° 20:07:37 10° 306° (NW) 3,117 5.8 -38.6°
Enters shadow 20:13:44 33° 251° (WSW) 1,801 4.0 -39.4°
